Location: Bodest
(46.3000°N, 22.5667°E)
Time: 09:59:18
(UTC+00:00)

CZ-2C R/B - Pass Details

Date: 16 October 2021
Orbit: 784 x 871 km, 98.2° (Epoch: 07 December)

Event Time Altitude Azimuth Distance (km) Brightness Sun altitude
Rises 17:47:08 0° 6° (N) 3,472 6.0 -22.4°
Reaches altitude 10° 17:49:41 10° 358° (N) 2,530 5.3 -22.9°
Maximum altitude 17:54:46 36° 294° (WNW) 1,352 4.3 -23.7°
Drops below altitude 10° 17:59:46 10° 230° (SW) 2,495 5.6 -24.6°
Sets 18:02:18 0° 222° (SW) 3,418 6.2 -25.0°
